Location: Napa Soda Springs
(38.3907°N, 122.2794°W)
Time: 21:42:33
(UTC+00:00)

CZ-4B R/B - Pass Details

Date: 29 October 2020
Orbit: 496 x 647 km, 97.8° (Epoch: 24 November)

Event Time Altitude Azimuth Distance (km) Brightness Sun altitude
Rises 12:55:27 0° 12° (NNE) 2,837 7.6 -19.6°
Reaches altitude 10° 12:57:40 10° 13° (NNE) 1,906 6.7 -19.2°
Maximum altitude 13:01:48 87° 103° (ESE) 568 3.8 -18.4°
Drops below altitude 10° 13:05:42 10° 192° (SSW) 1,800 6.4 -17.6°
Sets 13:07:45 0° 193° (SSW) 2,664 7.2 -17.2°
